owner,sensor,date,latitude,longitude,vertical_datum,wind_speed,wind_to_direction,wind_speed_of_gust,qcFlag 
DISL,ioos:station:DISL:CATA:1,2017-12-01T00:00:00Z,30.3085,-88.1395,0.0,3.3,285.0,99.0,'11111222,11111222,11144222' 
DISL,ioos:station:DISL:CATA:1,2017-12-01T00:30:00Z,30.3085,-88.1395,0.0,3.39,252.7,-9999.0,'1111122,1111122,1111122' 
DISL,ioos:station:DISL:CATA:1,2017-12-01T01:00:00Z,30.3085,-88.1395,0.0,2.8,188.0,99.0,'11111222,11111222,11144222' 
DISL,ioos:station:DISL:CATA:1,2017-12-01T01:30:00Z,30.3085,-88.1395,0.0,3.91,212.6,-9999.0,'1111122,1111122,1111122' 
DISL,ioos:station:DISL:CATA:1,2017-12-01T02:00:00Z,30.3085,-88.1395,0.0,3.1,271.0,99.0,'11111222,11111222,11144222' 
DISL,ioos:station:DISL:CATA:1,2017-12-01T02:30:00Z,30.3085,-88.1395,0.0,2.93,270.2,-9999.0,'1111122,1111122,1111122' 
DISL,ioos:station:DISL:CATA:1,2017-12-01T03:00:00Z,30.3085,-88.1395,0.0,3.1,271.0,99.0,'11111222,11111222,11144222' 
DISL,ioos:station:DISL:CATA:1,2017-12-01T03:30:00Z,30.3085,-88.1395,0.0,2.87,274.1,-9999.0,'1111122,1111122,1111122' 
DISL,ioos:station:DISL:CATA:1,2017-12-01T04:00:00Z,30.3085,-88.1395,0.0,3.2,298.0,99.0,'11111222,11111222,11144222' 
DISL,ioos:station:DISL:CATA:1,2017-12-01T04:30:00Z,30.3085,-88.1395,0.0,3.29,291.6,-9999.0,'1111122,1111122,1111122' 
DISL,ioos:station:DISL:CATA:1,2017-12-01T05:00:00Z,30.3085,-88.1395,0.0,2.6,296.0,99.0,'11111222,11111222,11144222' 
DISL,ioos:station:DISL:CATA:1,2017-12-01T05:30:00Z,30.3085,-88.1395,0.0,3.19,322.9,-9999.0,'1111122,1111122,1111122' 
DISL,ioos:station:DISL:CATA:1,2017-12-01T06:30:00Z,30.3085,-88.1395,0.0,2.35,349.4,-9999.0,'1111122,1111122,1111122' 
DISL,ioos:station:DISL:CATA:1,2017-12-01T07:00:00Z,30.3085,-88.1395,0.0,2.4,338.0,99.0,'11111222,11111222,11144222' 
DISL,ioos:station:DISL:CATA:1,2017-12-01T07:30:00Z,30.3085,-88.1395,0.0,2.22,6.985,-9999.0,'1111122,1111122,1111122' 
DISL,ioos:station:DISL:CATA:1,2017-12-01T08:00:00Z,30.3085,-88.1395,0.0,2.6,10.0,99.0,'11111222,11111222,11144222' 
DISL,ioos:station:DISL:CATA:1,2017-12-01T08:30:00Z,30.3085,-88.1395,0.0,2.65,13.75,-9999.0,'1111122,1111122,1111122' 
DISL,ioos:station:DISL:CATA:1,2017-12-01T09:00:00Z,30.3085,-88.1395,0.0,2.7,5.0,99.0,'11111222,11111222,11144222' 
DISL,ioos:station:DISL:CATA:1,2017-12-01T09:30:00Z,30.3085,-88.1395,0.0,2.78,352.8,-9999.0,'1111122,1111122,1111122' 
DISL,ioos:station:DISL:CATA:1,2017-12-01T10:00:00Z,30.3085,-88.1395,0.0,3.2,25.0,99.0,'11111222,11111222,11144222' 
DISL,ioos:station:DISL:CATA:1,2017-12-01T10:30:00Z,30.3085,-88.1395,0.0,2.46,15.76,-9999.0,'1111122,1111122,1111122' 
DISL,ioos:station:DISL:CATA:1,2017-12-01T11:00:00Z,30.3085,-88.1395,0.0,3.1,36.0,99.0,'11111222,11111222,11144222' 
DISL,ioos:station:DISL:CATA:1,2017-12-01T11:30:00Z,30.3085,-88.1395,0.0,0.86,81.6,-9999.0,'1111122,1111122,1111122' 
DISL,ioos:station:DISL:CATA:1,2017-12-01T12:00:00Z,30.3085,-88.1395,0.0,0.5,97.0,99.0,'11111222,11111222,11144222' 
DISL,ioos:station:DISL:CATA:1,2017-12-01T12:30:00Z,30.3085,-88.1395,0.0,0.79,107.1,-9999.0,'1111122,1111122,1111122' 
DISL,ioos:station:DISL:CATA:1,2017-12-01T13:00:00Z,30.3085,-88.1395,0.0,0.0,0.0,99.0,'11111222,11111222,11144222' 
DISL,ioos:station:DISL:CATA:1,2017-12-01T13:30:00Z,30.3085,-88.1395,0.0,0.73,352.2,-9999.0,'1111122,1111122,1111122' 
DISL,ioos:station:DISL:CATA:1,2017-12-01T14:00:00Z,30.3085,-88.1395,0.0,1.1,44.0,99.0,'11111222,11111222,11144222' 
DISL,ioos:station:DISL:CATA:1,2017-12-01T14:30:00Z,30.3085,-88.1395,0.0,1.56,51.27,-9999.0,'1111122,1111122,1111122' 
DISL,ioos:station:DISL:CATA:1,2017-12-01T15:00:00Z,30.3085,-88.1395,0.0,2.0,54.0,99.0,'11111222,11111222,11144222' 
DISL,ioos:station:DISL:CATA:1,2017-12-01T15:30:00Z,30.3085,-88.1395,0.0,3.09,45.13,-9999.0,'1111122,1111122,1111122' 
DISL,ioos:station:DISL:CATA:1,2017-12-01T16:00:00Z,30.3085,-88.1395,0.0,1.8,63.0,99.0,'11111222,11111222,11144222' 
DISL,ioos:station:DISL:CATA:1,2017-12-01T16:30:00Z,30.3085,-88.1395,0.0,2.63,47.72,-9999.0,'1111122,1111122,1111122' 
DISL,ioos:station:DISL:CATA:1,2017-12-01T17:00:00Z,30.3085,-88.1395,0.0,2.3,58.0,99.0,'11111222,11111222,11144222' 
DISL,ioos:station:DISL:CATA:1,2017-12-01T17:30:00Z,30.3085,-88.1395,0.0,3.21,63.34,-9999.0,'1111122,1111122,1111122' 
DISL,ioos:station:DISL:CATA:1,2017-12-01T18:00:00Z,30.3085,-88.1395,0.0,3.2,79.0,99.0,'11111222,11111222,11144222' 
DISL,ioos:station:DISL:CATA:1,2017-12-01T18:30:00Z,30.3085,-88.1395,0.0,2.81,99.5,-9999.0,'1111122,1111122,1111122' 
DISL,ioos:station:DISL:CATA:1,2017-12-01T19:00:00Z,30.3085,-88.1395,0.0,2.0,100.0,99.0,'11111222,11111222,11144222' 
DISL,ioos:station:DISL:CATA:1,2017-12-01T19:30:00Z,30.3085,-88.1395,0.0,0.79,143.8,-9999.0,'1111122,1111122,1111122' 
DISL,ioos:station:DISL:CATA:1,2017-12-01T20:00:00Z,30.3085,-88.1395,0.0,0.3,220.0,99.0,'11111222,11111222,11144222' 
DISL,ioos:station:DISL:CATA:1,2017-12-01T20:30:00Z,30.3085,-88.1395,0.0,0.75,266.2,-9999.0,'1111122,1111122,1111122' 
DISL,ioos:station:DISL:CATA:1,2017-12-01T21:00:00Z,30.3085,-88.1395,0.0,1.4,246.0,99.0,'11111222,11111222,11144222' 
DISL,ioos:station:DISL:CATA:1,2017-12-01T21:30:00Z,30.3085,-88.1395,0.0,1.03,215.9,-9999.0,'1111122,1111122,1111122' 
DISL,ioos:station:DISL:CATA:1,2017-12-01T22:00:00Z,30.3085,-88.1395,0.0,1.1,231.0,99.0,'11111222,11111222,11144222' 
DISL,ioos:station:DISL:CATA:1,2017-12-01T22:30:00Z,30.3085,-88.1395,0.0,0.67,263.4,-9999.0,'1111122,1111122,1111122' 
DISL,ioos:station:DISL:CATA:1,2017-12-01T23:00:00Z,30.3085,-88.1395,0.0,1.2,283.0,99.0,'11111222,11111222,11144222' 
DISL,ioos:station:DISL:CATA:1,2017-12-01T23:30:00Z,30.3085,-88.1395,0.0,1.02,301.9,-9999.0,'1111122,1111122,1111122' 
DISL,ioos:station:DISL:CATA:1,2017-12-02T00:00:00Z,30.3085,-88.1395,0.0,0.8,315.0,99.0,'11111222,11111222,11144222' 
DISL,ioos:station:DISL:CATA:1,2017-12-02T00:30:00Z,30.3085,-88.1395,0.0,2.02,306.1,-9999.0,'1111122,1111122,1111122' 
DISL,ioos:station:DISL:CATA:1,2017-12-02T01:00:00Z,30.3085,-88.1395,0.0,2.6,6.0,99.0,'11111222,11111222,11144222' 
DISL,ioos:station:DISL:CATA:1,2017-12-02T01:30:00Z,30.3085,-88.1395,0.0,3.25,15.52,-9999.0,'1111122,1111122,1111122' 
DISL,ioos:station:DISL:CATA:1,2017-12-02T02:00:00Z,30.3085,-88.1395,0.0,4.1,10.0,99.0,'11111222,11111222,11144222' 
DISL,ioos:station:DISL:CATA:1,2017-12-02T02:30:00Z,30.3085,-88.1395,0.0,2.44,4.054,-9999.0,'1111122,1111122,1111122' 
DISL,ioos:station:DISL:CATA:1,2017-12-02T03:00:00Z,30.3085,-88.1395,0.0,2.8,358.0,99.0,'11111222,11111222,11144222' 
DISL,ioos:station:DISL:CATA:1,2017-12-02T03:30:00Z,30.3085,-88.1395,0.0,3.52,11.35,-9999.0,'1111122,1111122,1111122' 
DISL,ioos:station:DISL:CATA:1,2017-12-02T04:00:00Z,30.3085,-88.1395,0.0,3.4,359.0,99.0,'11111222,11111222,11144222' 
DISL,ioos:station:DISL:CATA:1,2017-12-02T04:30:00Z,30.3085,-88.1395,0.0,3.1,5.468,-9999.0,'1111122,1111122,1111122' 
DISL,ioos:station:DISL:CATA:1,2017-12-02T05:00:00Z,30.3085,-88.1395,0.0,2.2,31.0,99.0,'11111222,11111222,11144222' 
DISL,ioos:station:DISL:CATA:1,2017-12-02T05:30:00Z,30.3085,-88.1395,0.0,3.04,8.14,-9999.0,'1111122,1111122,1111122' 
DISL,ioos:station:DISL:CATA:1,2017-12-02T06:30:00Z,30.3085,-88.1395,0.0,3.09,340.3,-9999.0,'1111122,1111122,1111122' 
DISL,ioos:station:DISL:CATA:1,2017-12-02T07:00:00Z,30.3085,-88.1395,0.0,2.63,348.5,-9999.0,'1111122,1111122,1111122' 
DISL,ioos:station:DISL:CATA:1,2017-12-02T07:30:00Z,30.3085,-88.1395,0.0,2.3,320.0,99.0,'11111222,11111222,11144222' 
DISL,ioos:station:DISL:CATA:1,2017-12-02T08:00:00Z,30.3085,-88.1395,0.0,2.5,299.0,99.0,'11111222,11111222,11144222' 
DISL,ioos:station:DISL:CATA:1,2017-12-02T08:30:00Z,30.3085,-88.1395,0.0,2.74,359.2,-9999.0,'1111122,1111122,1111122' 
DISL,ioos:station:DISL:CATA:1,2017-12-02T09:00:00Z,30.3085,-88.1395,0.0,4.03,347.9,-9999.0,'1111122,1111122,1111122' 
DISL,ioos:station:DISL:CATA:1,2017-12-02T09:30:00Z,30.3085,-88.1395,0.0,3.1,355.0,99.0,'11111222,11111222,11144222' 
DISL,ioos:station:DISL:CATA:1,2017-12-02T10:00:00Z,30.3085,-88.1395,0.0,2.6,3.0,99.0,'11111222,11111222,11144222' 
DISL,ioos:station:DISL:CATA:1,2017-12-02T10:30:00Z,30.3085,-88.1395,0.0,2.77,11.63,-9999.0,'1111122,1111122,1111122' 
DISL,ioos:station:DISL:CATA:1,2017-12-02T11:00:00Z,30.3085,-88.1395,0.0,2.93,5.591,-9999.0,'1111122,1111122,1111122' 
DISL,ioos:station:DISL:CATA:1,2017-12-02T11:30:00Z,30.3085,-88.1395,0.0,2.5,16.0,99.0,'11111222,11111222,11144222' 
DISL,ioos:station:DISL:CATA:1,2017-12-02T12:00:00Z,30.3085,-88.1395,0.0,3.19,6.279,-9999.0,'1111122,1111122,1111122' 
DISL,ioos:station:DISL:CATA:1,2017-12-02T12:30:00Z,30.3085,-88.1395,0.0,3.5,10.0,99.0,'11111222,11111222,11144222' 
DISL,ioos:station:DISL:CATA:1,2017-12-02T13:00:00Z,30.3085,-88.1395,0.0,1.0,9.0,99.0,'11111222,11111222,11144222' 
DISL,ioos:station:DISL:CATA:1,2017-12-02T13:30:00Z,30.3085,-88.1395,0.0,1.31,20.21,-9999.0,'1111122,1111122,1111122' 
DISL,ioos:station:DISL:CATA:1,2017-12-02T14:00:00Z,30.3085,-88.1395,0.0,2.4,25.0,99.0,'11111222,11111222,11144222' 
DISL,ioos:station:DISL:CATA:1,2017-12-02T14:30:00Z,30.3085,-88.1395,0.0,2.13,33.19,-9999.0,'1111122,1111122,1111122' 
DISL,ioos:station:DISL:CATA:1,2017-12-02T15:00:00Z,30.3085,-88.1395,0.0,2.5,48.0,99.0,'11111222,11111222,11144222' 
DISL,ioos:station:DISL:CATA:1,2017-12-02T15:30:00Z,30.3085,-88.1395,0.0,3.36,51.04,-9999.0,'1111122,1111122,1111122' 
DISL,ioos:station:DISL:CATA:1,2017-12-02T16:00:00Z,30.3085,-88.1395,0.0,4.1,52.0,99.0,'11111222,11111222,11144222' 
DISL,ioos:station:DISL:CATA:1,2017-12-02T16:30:00Z,30.3085,-88.1395,0.0,3.95,49.59,-9999.0,'1111122,1111122,1111122' 
DISL,ioos:station:DISL:CATA:1,2017-12-02T17:00:00Z,30.3085,-88.1395,0.0,5.0,43.0,99.0,'11111222,11111222,11144222' 
DISL,ioos:station:DISL:CATA:1,2017-12-02T17:30:00Z,30.3085,-88.1395,0.0,4.18,54.12,-9999.0,'1111122,1111122,1111122' 
DISL,ioos:station:DISL:CATA:1,2017-12-02T18:00:00Z,30.3085,-88.1395,0.0,3.9,60.0,99.0,'11111222,11111222,11144222' 
DISL,ioos:station:DISL:CATA:1,2017-12-02T18:30:00Z,30.3085,-88.1395,0.0,4.59,54.52,-9999.0,'1111122,1111122,1111122' 
DISL,ioos:station:DISL:CATA:1,2017-12-02T19:00:00Z,30.3085,-88.1395,0.0,3.5,69.0,99.0,'11111222,11111222,11144222' 
DISL,ioos:station:DISL:CATA:1,2017-12-02T19:30:00Z,30.3085,-88.1395,0.0,3.15,77.38,-9999.0,'1111122,1111122,1111122' 
DISL,ioos:station:DISL:CATA:1,2017-12-02T20:00:00Z,30.3085,-88.1395,0.0,2.9,71.0,99.0,'11111222,11111222,11144222' 
DISL,ioos:station:DISL:CATA:1,2017-12-02T20:30:00Z,30.3085,-88.1395,0.0,2.05,84.3,-9999.0,'1111122,1111122,1111122' 
DISL,ioos:station:DISL:CATA:1,2017-12-02T21:00:00Z,30.3085,-88.1395,0.0,1.5,96.0,99.0,'11111222,11111222,11144222' 
DISL,ioos:station:DISL:CATA:1,2017-12-02T21:30:00Z,30.3085,-88.1395,0.0,0.34,118.1,-9999.0,'1111122,1111122,1111122' 
DISL,ioos:station:DISL:CATA:1,2017-12-02T22:00:00Z,30.3085,-88.1395,0.0,0.4,209.0,99.0,'11111222,11111222,11144222' 
DISL,ioos:station:DISL:CATA:1,2017-12-02T22:30:00Z,30.3085,-88.1395,0.0,1.31,270.3,-9999.0,'1111122,1111122,1111122' 
DISL,ioos:station:DISL:CATA:1,2017-12-02T23:00:00Z,30.3085,-88.1395,0.0,1.3,262.0,99.0,'11111222,11111222,11144222' 
DISL,ioos:station:DISL:CATA:1,2017-12-02T23:30:00Z,30.3085,-88.1395,0.0,1.07,256.9,-9999.0,'1111122,1111122,1111122' 
DISL,ioos:station:DISL:CATA:1,2017-12-03T00:00:00Z,30.3085,-88.1395,0.0,2.3,278.0,99.0,'11111222,11111222,11144222' 
DISL,ioos:station:DISL:CATA:1,2017-12-03T00:30:00Z,30.3085,-88.1395,0.0,2.36,282.1,-9999.0,'1111122,1111122,1111122' 
DISL,ioos:station:DISL:CATA:1,2017-12-03T01:00:00Z,30.3085,-88.1395,0.0,2.2,278.0,99.0,'11111222,11111222,11144222' 
DISL,ioos:station:DISL:CATA:1,2017-12-03T01:30:00Z,30.3085,-88.1395,0.0,1.7,288.1,-9999.0,'1111122,1111122,1111122' 
DISL,ioos:station:DISL:CATA:1,2017-12-03T02:00:00Z,30.3085,-88.1395,0.0,0.4,341.0,99.0,'11111222,11111222,11144222' 
DISL,ioos:station:DISL:CATA:1,2017-12-03T02:30:00Z,30.3085,-88.1395,0.0,0.44,341.2,-9999.0,'1111122,1111122,1111122' 
DISL,ioos:station:DISL:CATA:1,2017-12-03T03:00:00Z,30.3085,-88.1395,0.0,1.0,314.0,99.0,'11111222,11111222,11144222' 
DISL,ioos:station:DISL:CATA:1,2017-12-03T03:30:00Z,30.3085,-88.1395,0.0,2.32,350.6,-9999.0,'1111122,1111122,1111122' 
DISL,ioos:station:DISL:CATA:1,2017-12-03T04:00:00Z,30.3085,-88.1395,0.0,2.3,355.0,99.0,'11111222,11111222,11144222' 
DISL,ioos:station:DISL:CATA:1,2017-12-03T04:30:00Z,30.3085,-88.1395,0.0,1.5,2.883,-9999.0,'1111122,1111122,1111122' 
DISL,ioos:station:DISL:CATA:1,2017-12-03T05:00:00Z,30.3085,-88.1395,0.0,2.7,3.0,99.0,'11111222,11111222,11144222' 
DISL,ioos:station:DISL:CATA:1,2017-12-03T05:30:00Z,30.3085,-88.1395,0.0,2.06,6.912,-9999.0,'1111122,1111122,1111122' 
DISL,ioos:station:DISL:CATA:1,2017-12-03T06:30:00Z,30.3085,-88.1395,0.0,2.15,24.48,-9999.0,'1111122,1111122,1111122' 
DISL,ioos:station:DISL:CATA:1,2017-12-03T07:00:00Z,30.3085,-88.1395,0.0,2.2,28.0,99.0,'11111222,11111222,11144222' 
DISL,ioos:station:DISL:CATA:1,2017-12-03T07:30:00Z,30.3085,-88.1395,0.0,3.16,19.21,-9999.0,'1111122,1111122,1111122' 
DISL,ioos:station:DISL:CATA:1,2017-12-03T08:00:00Z,30.3085,-88.1395,0.0,3.1,17.0,99.0,'11111222,11111222,11144222' 
DISL,ioos:station:DISL:CATA:1,2017-12-03T08:30:00Z,30.3085,-88.1395,0.0,2.47,21.82,-9999.0,'1111122,1111122,1111122' 
DISL,ioos:station:DISL:CATA:1,2017-12-03T09:00:00Z,30.3085,-88.1395,0.0,3.5,22.0,99.0,'11111222,11111222,11144222' 
DISL,ioos:station:DISL:CATA:1,2017-12-03T09:30:00Z,30.3085,-88.1395,0.0,3.48,36.62,-9999.0,'1111122,1111122,1111122' 
DISL,ioos:station:DISL:CATA:1,2017-12-03T10:00:00Z,30.3085,-88.1395,0.0,4.4,51.0,99.0,'11111222,11111222,11144222' 
DISL,ioos:station:DISL:CATA:1,2017-12-03T10:30:00Z,30.3085,-88.1395,0.0,3.9,36.74,-9999.0,'1111122,1111122,1111122' 
DISL,ioos:station:DISL:CATA:1,2017-12-03T11:00:00Z,30.3085,-88.1395,0.0,2.9,33.0,99.0,'11111222,11111222,11144222' 
DISL,ioos:station:DISL:CATA:1,2017-12-03T11:30:00Z,30.3085,-88.1395,0.0,4.36,49.98,-9999.0,'1111122,1111122,1111122' 
DISL,ioos:station:DISL:CATA:1,2017-12-03T12:00:00Z,30.3085,-88.1395,0.0,4.2,51.0,99.0,'11111222,11111222,11144222' 
DISL,ioos:station:DISL:CATA:1,2017-12-03T12:30:00Z,30.3085,-88.1395,0.0,4.36,54.69,-9999.0,'1111122,1111122,1111122' 
DISL,ioos:station:DISL:CATA:1,2017-12-03T13:00:00Z,30.3085,-88.1395,0.0,4.0,32.0,99.0,'11111222,11111222,11144222' 
DISL,ioos:station:DISL:CATA:1,2017-12-03T13:30:00Z,30.3085,-88.1395,0.0,4.99,47.94,-9999.0,'1111122,1111122,1111122' 
DISL,ioos:station:DISL:CATA:1,2017-12-03T14:00:00Z,30.3085,-88.1395,0.0,5.3,61.0,99.0,'11111222,11111222,11144222' 
DISL,ioos:station:DISL:CATA:1,2017-12-03T14:30:00Z,30.3085,-88.1395,0.0,5.73,52.54,-9999.0,'1111122,1111122,1111122' 
DISL,ioos:station:DISL:CATA:1,2017-12-03T15:00:00Z,30.3085,-88.1395,0.0,5.6,48.0,99.0,'11111222,11111222,11144222' 
DISL,ioos:station:DISL:CATA:1,2017-12-03T15:30:00Z,30.3085,-88.1395,0.0,5.46,43.38,-9999.0,'1111122,1111122,1111122' 
DISL,ioos:station:DISL:CATA:1,2017-12-03T16:00:00Z,30.3085,-88.1395,0.0,4.7,48.0,99.0,'11111222,11111222,11144222' 
DISL,ioos:station:DISL:CATA:1,2017-12-03T16:30:00Z,30.3085,-88.1395,0.0,2.98,43.95,-9999.0,'1111122,1111122,1111122' 
DISL,ioos:station:DISL:CATA:1,2017-12-03T17:00:00Z,30.3085,-88.1395,0.0,2.9,59.0,99.0,'11111222,11111222,11144222' 
DISL,ioos:station:DISL:CATA:1,2017-12-03T17:30:00Z,30.3085,-88.1395,0.0,2.39,47.26,-9999.0,'1111122,1111122,1111122' 
DISL,ioos:station:DISL:CATA:1,2017-12-03T18:00:00Z,30.3085,-88.1395,0.0,1.7,56.0,99.0,'11111222,11111222,11144222' 
DISL,ioos:station:DISL:CATA:1,2017-12-03T18:30:00Z,30.3085,-88.1395,0.0,1.74,38.2,-9999.0,'1111122,1111122,1111122' 
DISL,ioos:station:DISL:CATA:1,2017-12-03T19:00:00Z,30.3085,-88.1395,0.0,0.5,157.0,99.0,'11111222,11111222,11144222' 
DISL,ioos:station:DISL:CATA:1,2017-12-03T19:30:00Z,30.3085,-88.1395,0.0,2.37,141.8,-9999.0,'1111122,1111122,1111122' 
DISL,ioos:station:DISL:CATA:1,2017-12-03T20:00:00Z,30.3085,-88.1395,0.0,1.5,120.0,99.0,'11111222,11111222,11144222' 
DISL,ioos:station:DISL:CATA:1,2017-12-03T20:30:00Z,30.3085,-88.1395,0.0,1.44,98.3,-9999.0,'1111122,1111122,1111122' 
DISL,ioos:station:DISL:CATA:1,2017-12-03T21:00:00Z,30.3085,-88.1395,0.0,1.4,110.0,99.0,'11111222,11111222,11144222' 
DISL,ioos:station:DISL:CATA:1,2017-12-03T21:30:00Z,30.3085,-88.1395,0.0,2.02,92.2,-9999.0,'1111122,1111122,1111122' 
DISL,ioos:station:DISL:CATA:1,2017-12-03T22:00:00Z,30.3085,-88.1395,0.0,1.3,97.0,99.0,'11111222,11111222,11144222' 
DISL,ioos:station:DISL:CATA:1,2017-12-03T22:30:00Z,30.3085,-88.1395,0.0,2.03,81.3,-9999.0,'1111122,1111122,1111122' 
DISL,ioos:station:DISL:CATA:1,2017-12-03T23:00:00Z,30.3085,-88.1395,0.0,2.1,12.0,99.0,'11111222,11111222,11144222' 
DISL,ioos:station:DISL:CATA:1,2017-12-03T23:30:00Z,30.3085,-88.1395,0.0,1.57,9.14,-9999.0,'1111122,1111122,1111122' 
DISL,ioos:station:DISL:CATA:1,2017-12-04T00:00:00Z,30.3085,-88.1395,0.0,2.1,9.0,99.0,'11111222,11111222,11144222' 
DISL,ioos:station:DISL:CATA:1,2017-12-04T00:30:00Z,30.3085,-88.1395,0.0,2.12,22.39,-9999.0,'1111122,1111122,1111122' 
DISL,ioos:station:DISL:CATA:1,2017-12-04T01:00:00Z,30.3085,-88.1395,0.0,2.2,24.0,99.0,'11111222,11111222,11144222' 
DISL,ioos:station:DISL:CATA:1,2017-12-04T01:30:00Z,30.3085,-88.1395,0.0,2.09,354.3,-9999.0,'1111122,1111122,1111122' 
DISL,ioos:station:DISL:CATA:1,2017-12-04T02:00:00Z,30.3085,-88.1395,0.0,2.17,19.93,-9999.0,'1111122,1111122,1111122' 
DISL,ioos:station:DISL:CATA:1,2017-12-04T02:30:00Z,30.3085,-88.1395,0.0,2.6,19.0,99.0,'11111222,11111222,11144222' 
DISL,ioos:station:DISL:CATA:1,2017-12-04T03:00:00Z,30.3085,-88.1395,0.0,3.1,57.0,99.0,'11111222,11111222,11144222' 
DISL,ioos:station:DISL:CATA:1,2017-12-04T03:30:00Z,30.3085,-88.1395,0.0,3.98,68.99,-9999.0,'1111122,1111122,1111122' 
DISL,ioos:station:DISL:CATA:1,2017-12-04T04:00:00Z,30.3085,-88.1395,0.0,4.6,77.0,99.0,'11111222,11111222,11144222' 
DISL,ioos:station:DISL:CATA:1,2017-12-04T04:30:00Z,30.3085,-88.1395,0.0,4.09,86.9,-9999.0,'1111122,1111122,1111122' 
DISL,ioos:station:DISL:CATA:1,2017-12-04T05:00:00Z,30.3085,-88.1395,0.0,3.4,95.0,99.0,'11111222,11111222,11144222' 
DISL,ioos:station:DISL:CATA:1,2017-12-04T05:30:00Z,30.3085,-88.1395,0.0,3.14,79.24,-9999.0,'1111122,1111122,1111122' 
DISL,ioos:station:DISL:CATA:1,2017-12-04T06:30:00Z,30.3085,-88.1395,0.0,3.91,101.1,-9999.0,'1111122,1111122,1111122' 
DISL,ioos:station:DISL:CATA:1,2017-12-04T07:00:00Z,30.3085,-88.1395,0.0,4.7,93.0,99.0,'11111222,11111222,11144222' 
DISL,ioos:station:DISL:CATA:1,2017-12-04T07:30:00Z,30.3085,-88.1395,0.0,4.32,95.6,-9999.0,'1111122,1111122,1111122' 
DISL,ioos:station:DISL:CATA:1,2017-12-04T08:00:00Z,30.3085,-88.1395,0.0,4.4,92.0,99.0,'11111222,11111222,11144222' 
DISL,ioos:station:DISL:CATA:1,2017-12-04T08:30:00Z,30.3085,-88.1395,0.0,4.15,89.6,-9999.0,'1111122,1111122,1111122' 
DISL,ioos:station:DISL:CATA:1,2017-12-04T09:00:00Z,30.3085,-88.1395,0.0,4.7,91.0,99.0,'11111222,11111222,11144222' 
DISL,ioos:station:DISL:CATA:1,2017-12-04T09:30:00Z,30.3085,-88.1395,0.0,4.78,91.7,-9999.0,'1111122,1111122,1111122' 
DISL,ioos:station:DISL:CATA:1,2017-12-04T10:00:00Z,30.3085,-88.1395,0.0,4.4,92.0,99.0,'11111222,11111222,11144222' 
DISL,ioos:station:DISL:CATA:1,2017-12-04T10:30:00Z,30.3085,-88.1395,0.0,4.79,94.7,-9999.0,'1111122,1111122,1111122' 
DISL,ioos:station:DISL:CATA:1,2017-12-04T11:00:00Z,30.3085,-88.1395,0.0,4.0,93.0,99.0,'11111222,11111222,11144222' 
DISL,ioos:station:DISL:CATA:1,2017-12-04T11:30:00Z,30.3085,-88.1395,0.0,3.44,87.2,-9999.0,'1111122,1111122,1111122' 
DISL,ioos:station:DISL:CATA:1,2017-12-04T12:00:00Z,30.3085,-88.1395,0.0,3.5,83.0,99.0,'11111222,11111222,11144222' 
DISL,ioos:station:DISL:CATA:1,2017-12-04T12:30:00Z,30.3085,-88.1395,0.0,4.0,75.01,-9999.0,'1111122,1111122,1111122' 
DISL,ioos:station:DISL:CATA:1,2017-12-04T13:00:00Z,30.3085,-88.1395,0.0,4.1,86.0,99.0,'11111222,11111222,11144222' 
DISL,ioos:station:DISL:CATA:1,2017-12-04T13:30:00Z,30.3085,-88.1395,0.0,4.47,86.1,-9999.0,'1111122,1111122,1111122' 
DISL,ioos:station:DISL:CATA:1,2017-12-04T14:00:00Z,30.3085,-88.1395,0.0,4.9,83.0,99.0,'11111222,11111222,11144222' 
DISL,ioos:station:DISL:CATA:1,2017-12-04T14:30:00Z,30.3085,-88.1395,0.0,4.21,77.05,-9999.0,'1111122,1111122,1111122' 
DISL,ioos:station:DISL:CATA:1,2017-12-04T15:00:00Z,30.3085,-88.1395,0.0,4.3,86.0,99.0,'11111222,11111222,11144222' 
DISL,ioos:station:DISL:CATA:1,2017-12-04T15:30:00Z,30.3085,-88.1395,0.0,4.5,82.9,-9999.0,'1111122,1111122,1111122' 
DISL,ioos:station:DISL:CATA:1,2017-12-04T16:00:00Z,30.3085,-88.1395,0.0,3.8,71.0,99.0,'11111222,11111222,11144222' 
DISL,ioos:station:DISL:CATA:1,2017-12-04T16:30:00Z,30.3085,-88.1395,0.0,3.1,79.53,-9999.0,'1111122,1111122,1111122' 
DISL,ioos:station:DISL:CATA:1,2017-12-04T17:00:00Z,30.3085,-88.1395,0.0,3.9,89.0,99.0,'11111222,11111222,11144222' 
DISL,ioos:station:DISL:CATA:1,2017-12-04T17:30:00Z,30.3085,-88.1395,0.0,4.41,99.3,-9999.0,'1111122,1111122,1111122' 
DISL,ioos:station:DISL:CATA:1,2017-12-04T18:00:00Z,30.3085,-88.1395,0.0,4.3,99.0,99.0,'11111222,11111222,11144222' 
DISL,ioos:station:DISL:CATA:1,2017-12-04T18:30:00Z,30.3085,-88.1395,0.0,4.3,103.1,-9999.0,'1111122,1111122,1111122' 
DISL,ioos:station:DISL:CATA:1,2017-12-04T19:00:00Z,30.3085,-88.1395,0.0,3.5,109.0,99.0,'11111222,11111222,11144222' 
DISL,ioos:station:DISL:CATA:1,2017-12-04T19:30:00Z,30.3085,-88.1395,0.0,4.38,114.3,-9999.0,'1111122,1111122,1111122' 
DISL,ioos:station:DISL:CATA:1,2017-12-04T20:00:00Z,30.3085,-88.1395,0.0,5.1,113.0,99.0,'11111222,11111222,11144222' 
DISL,ioos:station:DISL:CATA:1,2017-12-04T20:30:00Z,30.3085,-88.1395,0.0,5.97,119.5,-9999.0,'1111122,1111122,1111122' 
DISL,ioos:station:DISL:CATA:1,2017-12-04T21:00:00Z,30.3085,-88.1395,0.0,5.7,112.0,99.0,'11111222,11111222,11144222' 
DISL,ioos:station:DISL:CATA:1,2017-12-04T21:30:00Z,30.3085,-88.1395,0.0,5.33,111.5,-9999.0,'1111122,1111122,1111122' 
DISL,ioos:station:DISL:CATA:1,2017-12-04T22:00:00Z,30.3085,-88.1395,0.0,5.9,113.0,99.0,'11111222,11111222,11144222' 
DISL,ioos:station:DISL:CATA:1,2017-12-04T22:30:00Z,30.3085,-88.1395,0.0,6.26,110.9,-9999.0,'1111122,1111122,1111122' 
DISL,ioos:station:DISL:CATA:1,2017-12-04T23:00:00Z,30.3085,-88.1395,0.0,5.4,110.0,99.0,'11111222,11111222,11144222' 
DISL,ioos:station:DISL:CATA:1,2017-12-04T23:30:00Z,30.3085,-88.1395,0.0,7.13,122.6,-9999.0,'1111122,1111122,1111122' 
DISL,ioos:station:DISL:CATA:1,2017-12-05T00:00:00Z,30.3085,-88.1395,0.0,5.5,115.0,99.0,'11111222,11111222,11144222' 
DISL,ioos:station:DISL:CATA:1,2017-12-05T00:30:00Z,30.3085,-88.1395,0.0,5.23,112.0,-9999.0,'1111122,1111122,1111122' 
DISL,ioos:station:DISL:CATA:1,2017-12-05T01:00:00Z,30.3085,-88.1395,0.0,4.9,109.0,99.0,'11111222,11111222,11144222' 
DISL,ioos:station:DISL:CATA:1,2017-12-05T01:30:00Z,30.3085,-88.1395,0.0,5.23,101.6,-9999.0,'1111122,1111122,1111122' 
DISL,ioos:station:DISL:CATA:1,2017-12-05T02:00:00Z,30.3085,-88.1395,0.0,5.2,107.0,99.0,'11111222,11111222,11144222' 
DISL,ioos:station:DISL:CATA:1,2017-12-05T02:30:00Z,30.3085,-88.1395,0.0,5.37,108.9,-9999.0,'1111122,1111122,1111122' 
DISL,ioos:station:DISL:CATA:1,2017-12-05T03:00:00Z,30.3085,-88.1395,0.0,4.8,100.0,99.0,'11111222,11111222,11144222' 
DISL,ioos:station:DISL:CATA:1,2017-12-05T03:30:00Z,30.3085,-88.1395,0.0,3.68,99.0,-9999.0,'1111122,1111122,1111122' 
DISL,ioos:station:DISL:CATA:1,2017-12-05T04:00:00Z,30.3085,-88.1395,0.0,3.7,103.0,99.0,'11111222,11111222,11144222' 
DISL,ioos:station:DISL:CATA:1,2017-12-05T04:30:00Z,30.3085,-88.1395,0.0,3.89,108.3,-9999.0,'1111122,1111122,1111122' 
DISL,ioos:station:DISL:CATA:1,2017-12-05T05:00:00Z,30.3085,-88.1395,0.0,3.5,108.0,99.0,'11111222,11111222,11144222' 
DISL,ioos:station:DISL:CATA:1,2017-12-05T05:30:00Z,30.3085,-88.1395,0.0,4.32,113.4,-9999.0,'1111122,1111122,1111122' 
DISL,ioos:station:DISL:CATA:1,2017-12-05T06:30:00Z,30.3085,-88.1395,0.0,4.03,108.5,-9999.0,'1111122,1111122,1111122' 
DISL,ioos:station:DISL:CATA:1,2017-12-05T07:00:00Z,30.3085,-88.1395,0.0,2.8,122.0,99.0,'11111222,11111222,11144222' 
DISL,ioos:station:DISL:CATA:1,2017-12-05T07:30:00Z,30.3085,-88.1395,0.0,1.64,156.1,-9999.0,'1111122,1111122,1111122' 
DISL,ioos:station:DISL:CATA:1,2017-12-05T08:00:00Z,30.3085,-88.1395,0.0,1.4,115.0,99.0,'11111222,11111222,11144222' 